Change the Weather History Date:

Sunday, October 6, 2013

  Actual Average Record
Temperature  
Mean Temperature 53 °F 52 °F  
Max Temperature 63 °F 65 °F 91 °F (1961)
Min Temperature 43 °F 39 °F 20 °F (2012)
Degree Days  
Heating Degree Days 12 13  
Month to date heating degree days 65 72  
Since 1 July heating degree days 140 268  
Cooling Degree Days 0 0  
Month to date cooling degree days 0 0  
Year to date cooling degree days 848 738  
Growing Degree Days 2 (Base 50)    
Moisture  
Dew Point 39 °F    
Average Humidity 64    
Maximum Humidity 96    
Minimum Humidity 32    
Precipitation  
Precipitation 0.09 in 0.07 in 1.79 in (1882)
Month to date precipitation 1.69 0.41  
Year to date precipitation 20.25 20.13  
Snow  
Snow 0.00 in 0.10 in T in (1990)
Month to date snowfall 0.0 0.1  
Since 1 July snowfall 0.0 0.1  
Since 1 September snowfall 0.0 0.1  
Snow Depth 0.00 in    
Sea Level Pressure  
Sea Level Pressure 29.93 in    
Wind  
Wind Speed 16 mph (NW)    
Max Wind Speed 25 mph    
Max Gust Speed 32 mph    
Visibility 9 miles    
Events Rain    
T = Trace of Precipitation, MM = Missing Value Source: NWS Daily Summary

Daily Weather History Graph

Daily Weather History Graph

Search for Another Location

Airport or City:

Trip Planner

Search our weather history database for the weather conditions in past years. The results will help you decide how hot, cold, wet, or windy it might be!

Date:

Astronomy

Oct. 06, 2013 Rise Set
Actual Time 7:37 AM CDT 7:03 PM CDT
Civil Twilight 7:08 AM CDT 7:32 PM CDT
Nautical Twilight 6:34 AM CDT 8:06 PM CDT
Astronomical Twilight 6:00 AM CDT 8:40 PM CDT
Moon 9:28 AM CDT (10/6) 7:58 PM CDT (10/6)
Length of Visible Light 12h 24m
Length of Day
11h 26m
Waxing Crescent, 3% of the Moon is Illuminated
Oct 6
Waxing Crescent
Oct 11
First Quarter
Oct 18
Full
Oct 26
Last Quarter
Nov 3
New

Hourly Weather History & Observations

Time (CDT) Temp. Windchill Dew Point Humidity Pressure Visibility Wind Dir Wind Speed Gust Speed Precip Events Conditions
12:21 AM 44.6 °F 38.8 °F 41.0 °F 87% 29.83 in 10.0 mi NNW 11.5 mph - 0.00 in   Overcast
12:30 AM 44.6 °F 38.8 °F 42.8 °F 93% 29.83 in 10.0 mi NNW 11.5 mph - 0.00 in   Overcast
12:55 AM 44.1 °F 37.4 °F 42.1 °F 93% 29.86 in 8.0 mi NNW 13.8 mph - 0.00 in   Overcast
1:55 AM 45.0 °F 37.6 °F 42.1 °F 90% 29.87 in 10.0 mi NNW 17.3 mph - N/A   Overcast
2:55 AM 44.1 °F 35.9 °F 42.1 °F 93% 29.88 in 6.0 mi NNW 19.6 mph 25.3 mph N/A   Overcast
3:55 AM 44.1 °F 36.2 °F 42.1 °F 93% 29.88 in 7.0 mi NNW 18.4 mph - 0.00 in Rain Light Rain
4:55 AM 44.1 °F 36.2 °F 42.1 °F 93% 29.88 in 7.0 mi NNW 18.4 mph 24.2 mph 0.01 in Rain Light Rain
5:55 AM 44.1 °F 37.1 °F 42.1 °F 93% 29.90 in 7.0 mi NNW 15.0 mph 23.0 mph 0.03 in Rain Light Rain
6:55 AM 43.0 °F 34.2 °F 41.0 °F 93% 29.91 in 5.0 mi NNW 20.7 mph 27.6 mph 0.03 in Rain Light Rain
7:55 AM 43.0 °F 34.8 °F 41.0 °F 93% 29.92 in 6.0 mi NNW 18.4 mph 24.2 mph 0.02 in Rain Light Rain
8:18 AM 42.8 °F 35.8 °F 41.0 °F 93% 29.91 in 10.0 mi NNW 13.8 mph - 0.00 in   Overcast
8:55 AM 43.0 °F 34.5 °F 39.9 °F 89% 29.94 in 8.0 mi NNW 19.6 mph 27.6 mph 0.00 in   Overcast
9:30 AM 44.6 °F 36.4 °F 39.2 °F 81% 29.92 in 10.0 mi NNW 20.7 mph 27.6 mph N/A   Overcast
9:55 AM 44.1 °F 36.5 °F 39.0 °F 82% 29.95 in 10.0 mi NNW 17.3 mph 28.8 mph N/A   Overcast
10:10 AM 42.8 °F 34.0 °F 37.4 °F 81% 29.93 in 10.0 mi NNW 20.7 mph 27.6 mph N/A   Overcast
10:55 AM 48.0 °F - 39.0 °F 71% 29.96 in 10.0 mi NNW 21.9 mph 32.2 mph N/A   Partly Cloudy
11:55 AM 50.0 °F - 37.9 °F 63% 29.96 in 10.0 mi NNW 23.0 mph 28.8 mph N/A   Clear
12:55 PM 53.1 °F - 37.0 °F 55% 29.96 in 10.0 mi NNW 23.0 mph - N/A   Clear
1:55 PM 57.0 °F - 35.1 °F 44% 29.95 in 10.0 mi NNW 20.7 mph 26.5 mph N/A   Clear
2:55 PM 59.0 °F - 32.0 °F 36% 29.94 in 10.0 mi NW 19.6 mph 26.5 mph N/A   Clear
3:55 PM 61.0 °F - 35.1 °F 38% 29.94 in 10.0 mi NW 19.6 mph 24.2 mph N/A   Clear
4:55 PM 63.0 °F - 32.0 °F 31% 29.94 in 10.0 mi NNW 13.8 mph 25.3 mph N/A   Clear
5:55 PM 62.1 °F - 36.0 °F 38% 29.96 in 10.0 mi NW 13.8 mph - N/A   Clear
6:55 PM 54.0 °F - 39.0 °F 57% 29.98 in 10.0 mi NW 6.9 mph - N/A   Clear
7:55 PM 48.9 °F - 37.9 °F 66% 29.99 in 10.0 mi WNW 6.9 mph - N/A   Clear
8:55 PM 46.0 °F 42.5 °F 37.9 °F 73% 29.99 in 10.0 mi West 6.9 mph - N/A   Clear
9:55 PM 46.0 °F 41.4 °F 39.0 °F 76% 30.00 in 10.0 mi West 9.2 mph - N/A   Clear
10:55 PM 46.0 °F 41.9 °F 39.0 °F 76% 30.01 in 10.0 mi West 8.1 mph - N/A   Clear
11:55 PM 45.0 °F 41.2 °F 39.0 °F 80% 30.00 in 10.0 mi West 6.9 mph - N/A   Clear